Content
SEND FEEDBACK

Daily
Averages
Monthly
Summary
Mauritania

NOUADHIBOU, MAURITANIA


Home > Africa > Mauritania
Elevation: 10 feet     Latitude: 20 56N     Longitude: 017 02W

WEATHER
 
SELECT A DAY
Number of Records: 117,940;   Date Range: 7/1/96 - 8/10/14
 
SHARE

PRINT THIS DATA

[ ← Previous Day ]
WEATHER ALMANAC - FEBRUARY 14, 2013
[ Next Day → ]
[ °C ]   °F
Weather ElementAverageHighLow
Temperature66.5 °F77 °F (2:00 pm)60.8 °F (3:00 am)
Dewpoint54 °F57.2 °F (4:00 pm)50 °F (7:00 am)
Humidity63.4 %77 % (12:00 am)39 % (2:00 pm)
Barometer29.96 in30.03 in (12:00 pm)29.89 in (4:00 pm)
Wind Speed16.8 mph21.9 mph (3:00 am)
Weather ElementAverage
Visibility5 mi
Wind DirectionSSE (143.6 °)

Weather ElementTotal
Precipitation---
Cooling Degree Days3.9 (Base 65)
Growing Degree Days18.9 (Base 50)
Averaged from 25 records on February 14, 2013
WEATHER CONDITIONS BREAKOUT
WIND DIRECTION BREAKOUT
WEATHER BY HOUR - FEBRUARY 14, 2013
[ °C ]   °F
Local TimeTemperatureDewpointHumidityBarometerVisibilityWind DirectionWind SpeedGust SpeedPrecipitationEventsConditions
12:00 AM62.6 °F55.4 °F77 %29.98 in5.0 miNorth (10°)18.4 mph
1:00 AM62.6 °F55.4 °F77 %29.98 in5.0 miNorth (10°)16.1 mph
2:00 AM62.6 °F53.6 °F72 %29.95 in5.0 miNorth (360°)19.6 mph
3:00 AM61.0 °F55.0 °F74 %29.96 in5.0 miNorth21.9 mph
3:00 AM60.8 °F53.6 °F77 %29.92 in5.0 miNorth (10°)21.9 mph
5:00 AM60.8 °F51.8 °F72 %29.95 in5.0 miNorth (10°)18.4 mph
6:00 AM60.8 °F51.8 °F72 %29.95 in5.0 miNorth (360°)16.1 mph
6:00 AM61.0 °F53.0 °F68 %29.98 in5.0 miNorth (350°)15.0 mphClear
7:00 AM60.8 °F50.0 °F68 %29.98 in5.0 miNNE (20°)16.1 mph
8:00 AM60.8 °F51.8 °F72 %29.98 in5.0 miNorth (10°)16.1 mph
9:00 AM62.0 °F55.0 °F71 %30.01 in5.0 miNorth18.4 mphMostly Cloudy
9:00 AM62.6 °F53.6 °F72 %29.98 in5.0 miNNE (20°)17.3 mph
10:00 AM64.4 °F53.6 °F68 %29.98 in5.0 miNNE (20°)18.4 mph
11:00 AM66.2 °F53.6 °F64 %29.98 in5.0 miNNE (30°)21.9 mph
12:00 PM71.0 °F53.0 °F41 %30.03 in5.0 miNorth18.4 mphMostly Cloudy
12:00 PM71.6 °F51.8 °F50 %30.01 in5.0 miNorth (10°)18.4 mph
1:00 PM73.4 °F50.0 °F44 %29.98 in5.0 miNorth (10°)16.1 mph
2:00 PM77.0 °F50.0 °F39 %29.95 in5.0 miNNE (30°)13.8 mph
3:00 PM77.0 °F55.4 °F47 %29.92 in5.0 miNNW (340°)10.4 mph
3:00 PM76.0 °F56.0 °F40 %29.93 in5.0 miNW (320°)11.5 mphMostly Cloudy
4:00 PM73.4 °F57.2 °F57 %29.89 in5.0 miNW (320°)13.8 mph
5:00 PM71.6 °F57.2 °F60 %29.89 in5.0 miNNW (330°)16.1 mph
6:00 PM69.0 °F57.0 °F58 %29.93 in5.0 miNW (320°)17.3 mphMostly Cloudy
10:00 PM66.2 °F57.2 °F73 %29.98 in5.0 miNorth (350°)13.8 mph
11:00 PM66.2 °F57.2 °F73 %29.98 in5.0 miNorth (350°)15.0 mph
Hourly data recorded from GQPP, located miles away from Nouadhibou, Mauritania







STORIES FROM OUR PARTNERS